SL-16 R/B, 23705

Orbit data source: Space-Track

SL-16 R/B, 23705 is space debris in LEO originally from a launch on Tue, 31 Oct 1995 UTC launched from the Tyuratam Missile And Space Complex (TTMTR). Debris objects in space refer to the collection of defunct objects orbiting the Earth. Examples of debris include non-operational satellites, rocket bodies, and fragments generated from explosions, collisions, or faulty payload assembly.

Loading next visibility...
Identifier
23705, 1995-058B
Orbit
LEO
Country
Flag of CISCIS
Related business
Manufacturer
Yuzhnoe
Mission
Spacecraft
Bus & Motor
11S772, Unknown motor
Mass
9,000 kg wet, 9,000 kg dry
Launch date (UTC)
1995-10-31 (31 years ago)
Launch vehicle
Unknown
Launch site
Tyuratam Missile And Space Complex (TTMTR)
Object type
Payload
Rocket body
Debris
Shape & HBR
Cyl, 5.6 m
Radar Cross Section
37.829 m², Large (>1 m²)

Expand to show TLE details & history
Last TLE update: 12 hours ago

TLE from 12 hours ago
0 SL-16 R/B
1 23705U 95058B   26266.85419880  .00000281  00000-0  16806-3 0  9994
2 23705  71.0198 124.2052 0012646 187.0819 173.0128 14.15518012595890
Epoch: 2026-09-23T20:30Z
TLE epoch observation values (Epoch: 2026-09-23T20:30:02.776Z)
Latitude
0.00004°
Longitude
173.9943°
Altitude
852.015 km
Speed
7.422 km/s
True Right ascension
08h 16m 49s
True Declination
0° 00' 00"
Sunlit
Object was in daylight at epoch
Visualization orbit readout
Latitude
Unknown
Longitude
Unknown
Altitude
Unknown
Speed
Unknown
Apparent Right ascension
Unknown
Apparent Declination
Unknown
Sunlit
N/A
Visualization observer readout
Local Sidereal Time
01:16:49
Azimuth
Unknown
Elevation
Unknown
Doppler factor
Unknown
Orbital elements
Apogee altitude
847.599 km
Perigee altitude
829.347 km
Semi-major axis
7,216.61 km
Eccentricity
0.00126
Inclination
71.0198°
RAAN
124.2052°
Arg. of periapsis
187.0819°
True anomaly
173.0304°
Mean anomaly
173.0128°
Eccentric anomaly
173.0216°
Mean motion
3.54033 °/min
Orbital period
101.69 mins
BSTAR
0.00016806
Loading maneuver chart data...
Computing Atmospheric mass density...
Loading historical data...
Loading historical data...
Loading historical data...
Loading historical data...
Loading historical data...
Loading historical data...
Loading historical data...

Documentation

Showing up to 5 results
|